Regional Weather Roundup
Issued by NWS

Home | Current Version | Previous Version | Graphics & Text | Print | Product List | Glossary Off
Versions: 1 2 3 4 5 6 7 8 9 10 11 12 13 14 15 16 17 18 19 20 21 22 23 24 25 26 27 28 29 30 31 32 33 34 35 36 37 38 39 40 41 42 43 44 45 46 47 48 49 50

000
ASUS43 KMKX 300600
RWRWI

WISCONSIN REGIONAL WEATHER ROUNDUP
NATIONAL WEATHER SERVICE MILWAUKEE/SULLIVAN WI
100 AM CDT SAT JUL 30 2016

NOTE: "FAIR" INDICATES FEW OR NO CLOUDS BELOW 12,000 FEET WITH NO
SIGNIFICANT WEATHER AND/OR OBSTRUCTIONS TO VISIBILITY.

WIZ001-002-006>008-014>016-023>028-300700-
NORTHWEST WISCONSIN

CITY           SKY/WX    TMP DP  RH WIND       PRES   REMARKS
SUPERIOR ARPT  CLEAR     57  56  97 NE3       30.07S
ASHLAND        CLEAR     53  53 100 W3        30.07S
6HR MIN TEMP:  51; 6HR MAX TEMP:  70;

HAYWARD        MOCLDY    56  54  93 CALM      30.07S
6HR MIN TEMP:  55; 6HR MAX TEMP:  73;

SIREN          NOT AVBL
CUMBERLAND     CLEAR     59  55  88 NE3       30.06S
RICE LAKE      CLEAR     59  57  92 CALM      30.07R
CHETEK         CLEAR     64  58  81 CALM      30.05S
LADYSMITH      CLEAR     61  58  90 CALM      30.08R
EAU CLAIRE     NOT AVBL
MENOMONIE      CLEAR     62  57  83 CALM      30.04S
6HR MIN TEMP:  62; 6HR MAX TEMP:  79;

NEW RICHMOND   PTCLDY    60  59  96 N3        30.05R
OSCEOLA        CLOUDY    60  60 100 CALM      30.07S
$$

WIZ003>005-009-010-017-018-300700-
NORTH CENTRAL WISCONSIN

CITY           SKY/WX    TMP DP  RH WIND       PRES   REMARKS
MANITOWISH WTR CLEAR     56  56 100 CALM      30.08S
ARBOR VITAE    MOCLDY    62  60  93 CALM      30.09R
WOODRUFF       MOCLDY    62  60  93 CALM      30.09R
RHINELANDER    CLEAR     58  55  90 CALM      30.09S
6HR MIN TEMP:  57; 6HR MAX TEMP:  72;

EAGLE RIVER    CLEAR     58  57  96 CALM      30.09S
LAND O LAKES   CLEAR     56  53  89 CALM      30.10F
PHILLIPS       MOCLDY    58  58 100 CALM      30.07S
6HR MIN TEMP:  58; 6HR MAX TEMP:  75;

TOMAHAWK       CLEAR     53  51  95 CALM      30.09R FOG
6HR MIN TEMP:  53; 6HR MAX TEMP:  73;

MEDFORD        CLEAR     60  60 100 CALM      30.07S
MERRILL        CLEAR     55  55 100 CALM      30.08S
6HR MIN TEMP:  54; 6HR MAX TEMP:  73;

$$

WIZ029-030-035-036-043>047-300700-
CENTRAL WISCONSIN

CITY           SKY/WX    TMP DP  RH WIND       PRES   REMARKS
WAUSAU         CLEAR     61  57  87 CALM      30.04F
6HR MIN TEMP:  61; 6HR MAX TEMP:  71;

MOSINEE        CLEAR     59  55  88 NE3       30.06S
MARSHFIELD     CLEAR     62  57  83 NE3       30.05S
6HR MIN TEMP:  62; 6HR MAX TEMP:  73;

STEVENS POINT  CLEAR     58  57  97 CALM      30.05S
WAUPACA        CLOUDY    66  62  85 CALM      30.03S
WAUTOMA        CLOUDY    65  61  87 CALM      30.03S
6HR MIN TEMP:  64; 6HR MAX TEMP:  71;

WISC RAPIDS    PTCLDY    62  56  80 E5        30.04F
6HR MIN TEMP:  62; 6HR MAX TEMP:  71;

CAMP DOUGLAS   NOT AVBL
$$

WIZ011>013-019>022-031-037>040-048>050-300700-
NORTHEAST WISCONSIN

CITY           SKY/WX    TMP DP  RH WIND       PRES   REMARKS
ANTIGO         CLEAR     56  54  93 CALM      30.08S
SHAWANO        MOCLDY    67  58  73 NE6       30.04F
OCONTO         CLOUDY    64  61  90 N3        30.03F
STURGEON BAY   CLEAR     66  59  78 NE6       30.04S
6HR MIN TEMP:  64; 6HR MAX TEMP:  71;

GREEN BAY      PTCLDY    64  59  83 NE6       30.02F
6HR MIN TEMP:  64; 6HR MAX TEMP:  72;

MANITOWOC      NOT AVBL
APPLETON       CLOUDY    64  50  59 NE3       30.01S
CLINTONVILLE   MOCLDY    63  55  77 CALM      30.03S
OSHKOSH        CLOUDY    70  57  63 E8        30.01S
6HR MIN TEMP:  69; 6HR MAX TEMP:  73;

$$

WIZ032>034-041-042-053>061-300700-
SOUTHWEST WISCONSIN

CITY           SKY/WX    TMP DP  RH WIND       PRES   REMARKS
LA CROSSE      PTCLDY    67  65  93 NW5       30.01S
6HR MIN TEMP:  66; 6HR MAX TEMP:  72; 6HR PCP: TRACE;

SPARTA         CLEAR     59  59 100 CALM      30.03S
VIROQUA        CLOUDY    64  64 100 CALM      30.03S
6HR MIN TEMP:  64; 6HR MAX TEMP:  69;

BOSCOBEL       FOG       63  62  97 CALM      30.00S VSB 1/4
6HR MIN TEMP:  63; 6HR MAX TEMP:  70;

PRAIRIE DU CHI   N/A     67  64  90 CALM      30.00R
PLATTEVILLE    CLEAR     65  65 100 NE5       30.00S
6HR MIN TEMP:  65; 6HR MAX TEMP:  71;

$$

WIZ056-057-062-063-064-067-068-300700-
SOUTH CENTRAL WISCONSIN

CITY           SKY/WX    TMP DP  RH WIND       PRES   REMARKS
REEDSBURG      CLEAR     64  63  96 CALM      30.01S
6HR MIN TEMP:  64; 6HR MAX TEMP:  69;

BARABOO/DELLS  CLEAR     63  60  90 NE5       30.02S
LONE ROCK      NOT AVBL
MINERAL POINT  CLEAR     64  63  94 NE3       30.01S
MADISON        CLOUDY    67  60  78 NE8       29.99S
6HR MIN TEMP:  66; 6HR MAX TEMP:  72;

MIDDLETON      CLOUDY    67  63  89 SE3       30.01R
WATERTOWN      CLOUDY    66  64  93 NE3       29.99F
6HR MIN TEMP:  66; 6HR MAX TEMP:  72;

MONROE         CLOUDY    64  63  94 N7        29.99S
JANESVILLE     CLOUDY    68  64  88 NE7       29.98S
$$

WIZ051-052-058>065-066-070>072-300700-
SOUTHEAST WISCONSIN

CITY           SKY/WX    TMP DP  RH WIND       PRES   REMARKS
MILWAUKEE      MOCLDY    72  63  73 E9        29.98S
6HR MIN TEMP:  69; 6HR MAX TEMP:  72;

WAUKESHA       CLOUDY    64  63  94 NE3       30.01R
MILWAUKEE/TIMM CLOUDY    68  61  77 NE3       30.01R
RACINE         MOCLDY    71  65  81 E8        29.99S
6HR MIN TEMP:  68; 6HR MAX TEMP:  72;

BURLINGTON     CLOUDY    63  62  97 CALM      29.98F
KENOSHA        PTCLDY    68  65  90 NE6       29.97F
6HR MIN TEMP:  68; 6HR MAX TEMP:  72; 6HR PCP:  0.01;

FOND DU LAC    CLOUDY    68  56  65 E7        30.01S
6HR MIN TEMP:  67; 6HR MAX TEMP:  74;

SHEBOYGAN      PTCLDY    62  59  90 NE3       30.01S
6HR MIN TEMP:  62; 6HR MAX TEMP:  70; 6HR PCP:  0.01;

WEST BEND      CLOUDY    64  59  82 NE3       30.01S
JUNEAU         CLOUDY    65  57  75 NE5       30.02S
$$

LSZ147-162-300700-
LAKE SUPERIOR

STATION/POSITION TIME  TEMP    WIND        PRES    WAVE
                       AIR SEA DIR/SP/G            HT/PER
                 (UTC) (F)     (DEG/KT/KT) (MB)    (FT/S)
W MID LAKE BUOY  0450   64 62  110/  4/  6 1017.7R   1
DEVILS ISLAND    0500   66      20/  3/  3 1018.1S
PORT WING        0540   58     190/  1/  2 1018.3S
SAXON HARBOR     0500   58     190/  2/  3 1017.6S
$$

LMZ867-665-643>646-300700-
LAKE MICHIGAN

STATION/POSITION TIME  TEMP    WIND        PRES    WAVE
                       AIR SEA DIR/SP/G            HT/PER
                 (UTC) (F)     (DEG/KT/KT) (MB)    (FT/S)
CHAMBERS ISLAND  0540   70      40/  8/ 10 1017.3S
S GREEN BAY BUOY 0430   69 70   60/ 12/ 14 1016.2F
N MID LAKE BUOY  0450   70 70   90/ 12/ 14 1016.8S   1/ 3
NORTHPORT PIER   0500   71      70/ 10/ 12 1017.3S
SISTER BAY       0506   66      70/  1/  3   N/A
ALGOMA LAKESHORE 0513           40/  8/ 12   N/A
KEWAUNEE LAKESHO 0500   67      20/  4/  7 1016.1F
SHEBOYGAN LAKESH 0500   66     350/  9/ 10 1016.3R
PORT WASHINGTON  0500   69      40/  7/  9 1016.3S
ATWATER BUOY     0500   68 62   90/  8/ 10 1016.8S
MILWAUKEE LAKESH 0510   67      70/  8/  8   N/A
S MID LAKE BUOY  0450   72 74   90/ 16/ 19 1014.0R   3/ 4
KENOSHA   LAKESH 0500   73      80/ 10/ 12 1014.6S
$$

TC  - TEMPERATURE IN CELSIUS
VSB - VISIBILITY IN STATUTE MILES
WCI - WIND CHILL INDEX
HX  - HEAT INDEX





USA.gov is the U.S. government's official web portal to all federal, state and local government web resources and services.